CZ-2C R/B

Satellite information

Favourite Embed

Satellite Type and Status

ROCKET BODYIN ORBIT

Key statistics

Satellite CZ-2C R/B at a glance.

Uptime

288

Days in orbit

Revolutions

≈ 15.2

Per day

Orbit

SSO

Sun Synchronous Orbit

Inclination

97.5

Latest

Satellite identification and parameters

Extended collection of information and parameters for CZ-2C R/B.

Object identification

Identified? True

Debris? False

Object name: CZ-2C R/B

International designator: 2024-218A

Object number (NORAD): 62078

Object ID (CCSDS): 62078

Country: PEOPLES REPUBLIC OF CHINA (PRC)

Current information (Y/N): Y

RCS size: LARGE

Orbital parameters

Period: 94.757 minutes

Inclination: 97.5469 deg

SMA: 6884.966 km

Apoapsis: 539.053 km

Periapsis: 474.609 km

RAAN: 260.6472 deg

Eccentricy: 0.00468009

Argument of periapsis: 276.0533 deg

Mean anomaly: 83.5369 deg

Mean motion: 15.19672753 rev/day

Mean motion (dot): 0.00006455 rev/day2

B* drag term: 0.00029720893 1/REarth

Two-line elements (TLE)

Creation date: Sept. 8, 2025, 3:16 a.m.

Reference frame: TEME

Reference center: EARTH

Epoch: Sept. 7, 2025, 10:39 p.m. UTC

TLE line 0: 0 CZ-2C R/B

TLE line 1: 1 62078U 24218A 25250.94395763 .00006455 00000-0 29721-3 0 9994

TLE line 2: 2 62078 97.5469 260.6472 0046801 276.0533 83.5369 15.19672753 43521

Live tracking on map

Real-time ground track for satellite CZ-2C R/B.

In-orbit conjunctions

A list of the most updated potential collisions computed for object CZ-2C R/B.

Target Orbit TCA Probability of collision Miss distance Type
COSMOS 1975 LEO 2025-06-28 22:57:01 0.0002376028 101.0 (m) PAYLOAD

Associated space launch

Commercial Synthetic-aperture radar Earth observation satellites built by CAST for China Siwei Survey and Mapping Technology Co. Ltd.

CZ-2C R/B was lifted into orbit during the mission ‘Long March 2C | SuperView Neo 2-03 & 04’, on board a Long March 2 space rocket.

The launch took place on Nov. 24, 2024, 11:39 p.m. from Launch Area 4 (SLS-2 / 603).

For more information about the launch, click the button.

Launch to space Long March 2C | SuperView Neo 2-03 & 04
Long March 2C | SuperView Neo 2-03 & 04

Agency: N/A

Status: Launch Successful

Launch date: Nov. 24, 2024, 11:39 p.m. UTC

Rocket: Long March 2

Launch pad: Launch Area 4 (SLS-2 / 603)

Location: Jiuquan Satellite Launch Center, People's Republic of China

...

Latest news about this satellite

News about space launch
Chang Zheng 12, ZhuQue-2E fly maiden missions; Hainan spaceport and mega constellations expand

In late November, two new Chinese rockets took their maiden flights within four days of… The post Chang Zheng 12, ZhuQue-2E fly maiden missions; Hainan spaceport and mega constellations expand appeared first on NASASpaceFlight.com.

News about space launch
China launches pair of SuperView Neo-2 radar satellites

HELSINKI — China launched a pair of radar satellites late Sunday for a state-owned firm building a 28-satellite remote sensing constellation. A Long March 2C rocket lifted off at 6:39 […] The post China launches pair of SuperView Neo-2 radar satellites a...

News about space launch
Launch Roundup: Falcon 9 launches continue, Rocket Lab to launch two Electrons, Russia to fly to ISS

Following the sixth flight of SpaceX’s Starship on Tuesday, four additional orbital launches are planned worldwide. Rocket Lab will launch an experimental hypersonic testbed payload using a modified Electron from Wallops. What’s more, a second Electron wi...


Newsletter sign-up

Weekly statistics, charts and insights to help you stay on top of the space industry.